Regional Weather Roundup
Issued by NWS Green Bay, WI

Home | Current Version | Previous Version | Graphics & Text | Print | Product List | Glossary Off
Versions: 1 2 3 4 5 6 7 8 9 10 11 12 13 14 15 16 17 18 19 20 21 22 23 24 25 26 27 28 29 30 31 32 33 34 35 36 37 38 39 40 41 42 43 44 45 46 47 48 49 50

000
ASUS43 KGRB 221610
RWRGRB

NORTH-CENTRAL AND NORTHEAST WISCONSIN REGIONAL WEATHER ROUNDUP
NATIONAL WEATHER SERVICE GREEN BAY WI
1100 AM CDT WED OCT 22 2014

WIZ005-009-010>012-018-019-221700-
NORTH CENTRAL WISCONSIN

CITY           SKY/WX    TMP DP  RH WIND       PRES   REMARKS
IRONWOOD       SUNNY     46  30  53 S10G23    30.24F
MANITOWISH WTR SUNNY     44  34  68 S8        30.29F
ARBOR VITAE    SUNNY     44  34  66 S10       30.30F
EAGLE RIVER    SUNNY     42  36  78 SE7       30.32S
LAND O LAKES   SUNNY     43  36  76 S7        30.32S
RHINELANDER    SUNNY    N/A N/A N/A MISG      30.32S
PHILLIPS       SUNNY     45  33  64 S10       30.28F
ANTIGO         SUNNY     40  38  93 S9        30.35S
TOMAHAWK       SUNNY     45  35  69 SE6       30.32S
MERRILL        SUNNY     45  35  68 S8        30.33S
$$

WIZ013-073-221700-
NORTHEAST WISCONSIN

CITY           SKY/WX    TMP DP  RH WIND       PRES   REMARKS
IRON MOUNTAIN  FOG       36  35  96 SE6       30.36S VSB 1/2
MARINETTE      PTSUNNY   46  36  66 S8        30.39S
OCONTO         MOSUNNY   46  37  69 S6        30.39S
$$

WIZ017-030-035>037-045-221700-
CENTRAL WISCONSIN

CITY           SKY/WX    TMP DP  RH WIND       PRES   REMARKS
MEDFORD        SUNNY     43  34  71 S12       30.31S
WAUSAU         SUNNY     46  36  68 S12       30.33S
MOSINEE        SUNNY     43  39  87 SE8       30.34S
MARSHFIELD     MOSUNNY   46  36  68 S8        30.32S
WISC RAPIDS    SUNNY     47  38  71 S9        30.35S
STEVENS POINT  SUNNY     43  35  72 SE8       30.35S
WAUPACA        SUNNY     46  40  81 E3        30.37S
SHAWANO        SUNNY     44  38  81 N3        30.38F
CLINTONVILLE   SUNNY     45  37  76 SE8       30.37S
$$

WIZ038-039-048-051-221700-
FOX VALLEY

CITY           SKY/WX    TMP DP  RH WIND       PRES   REMARKS
NWS GREEN BAY  MOSUNNY   47  38  71 VRB6      30.39S
APPLETON       MOSUNNY   46  37  71 VRB5      30.37
OSHKOSH        SUNNY     49  39  68 S6        30.37S
FOND DU LAC    SUNNY     49  40  71 SE5       30.37S
$$

WIZ022-050-052-221700-
EAST CENTRAL WISCONSIN

CITY           SKY/WX    TMP DP  RH WIND       PRES   REMARKS
STURGEON BAY   MOSUNNY   46  36  66 SE8       30.40S
MANITOWOC      CLOUDY    47  38  71 S7        30.39S
SHEBOYGAN      CLOUDY    48  39  71 S6        30.38S
$$

LMZ563-521-522-541>543-221700-
LAKESHORE

STATION/POSITION TIME  TEMP    WIND        PRES    VSBY  WAVE
                       AIR SEA DIR/SP/G                  HT/PER
                 (UTC) (F)     (DEG/KT/KT) (MB)    (MI)  (FT/S)
SHEBOYGAN LKSHOR 1600   47 49  110/  7/  8 1029.4R
KEWAUNEE LKSHORE 1600   46     110/  4/  8 1028.2R
TWO RIVERS CG    1500   46 50              1028.7      6   1
NORTHPORT PIER   1600   45     140/  7/ 10 1029.5S
N MID LAKE BUOY  1600   43 51  130/ 10/ 12 1030.1R         1
STURGEON BAY CG  1500   45 48  110/  5     1030.0      6   1
CHAMBERS ISLAND  1600   47     160/  3/  6 1029.5R
MENOMINEE LKSHOR 1600   45     150/  6/  8 1029.4F
$$



USA.gov is the U.S. government's official web portal to all federal, state and local government web resources and services.